Location: Innsbruck
(47.2657°N, 11.3914°E)
Time: 01:38:11
(UTC+02:00)

Envisat - Pass Details

Date: 04 February 2023
Orbit: 763 x 765 km, 98.2° (Epoch: 28 March)

Event Time Altitude Azimuth Distance (km) Brightness Sun altitude
Rises 06:04:17 0° 360° (N) 3,245 6.2 -15.9°
Reaches altitude 10° 06:07:24 10° 340° (NNW) 2,313 5.2 -15.4°
Enters shadow 06:09:28 16° 317° (NW) 1,952 4.7 -15.0°
